Weather reports worldwide

Advertisment
Boltenhagen, Germany (10161): temperature & dewpoint: 14.01.2021 15:00:00 - 20.01.2021 15:00:00 (CET)Boltenhagen, Germany (10161): temperature 5cm & temperature -5cm: 14.01.2021 15:00:00 - 20.01.2021 15:00:00 (CET)Boltenhagen, Germany (10161): temperature -20cm & temperature -100cm: 14.01.2021 15:00:00 - 20.01.2021 15:00:00 (CET)Boltenhagen, Germany (10161): wind speed & gusts: 14.01.2021 15:00:00 - 20.01.2021 15:00:00 (CET)Boltenhagen, Germany (10161): wind direction: 14.01.2021 15:00:00 - 20.01.2021 15:00:00 (CET)Boltenhagen, Germany (10161): reduced air pressure: 14.01.2021 15:00:00 - 20.01.2021 15:00:00 (CET)Boltenhagen, Germany (10161): visibility: 14.01.2021 15:00:00 - 20.01.2021 15:00:00 (CET)Boltenhagen, Germany (10161): sunshine duration: 14.01.2021 15:00:00 - 20.01.2021 15:00:00 (CET)Boltenhagen, Germany (10161): precipitation: 14.01.2021 15:00:00 - 20.01.2021 15:00:00 (CET)
Date & Time tt [°C] td [°C] tt 5cm [°C] tt -5cm [°C] tt -20cm [°C] tt -100cm [°C] ff [km/h] ff [kn] fx [km/h] fx [kn] dd ppp [hPa] vv [km] sd [min] rr [mm]
20.01.2021 15:00:00 8,5 4,6 - - - - 26 14 47 26 SSW 995,8 73 2 -
20.01.2021 14:00:00 8,3 4,4 7,7 7,3 3,9 4,7 29 16 49 26 SSW 996,0 53 2 0,0
20.01.2021 13:00:00 7,8 4,6 7,3 6,9 3,7 4,7 29 16 46 25 SSW 996,4 73 1 0,0
20.01.2021 12:00:00 7,5 4,6 7,1 6,6 3,4 4,7 31 17 45 25 SSW 996,7 50 1 0,0
20.01.2021 11:00:00 6,4 4,8 6,0 5,4 3,3 4,7 26 14 45 25 SSW 997,4 39 0 0,0
20.01.2021 10:00:00 5,4 4,5 5,1 4,6 3,2 4,8 27 14 42 23 SSW 997,6 22 0 0,1
20.01.2021 09:00:00 5,1 4,6 4,7 4,2 3,2 4,8 27 15 45 24 SSW 998,0 6 0 0,3
20.01.2021 08:00:00 5,2 4,6 4,8 4,2 3,1 4,8 26 14 50 27 SSW 998,1 5 0 0,3
20.01.2021 07:00:00 5,5 4,8 5,0 4,4 3,0 4,8 25 13 43 23 SSW 998,1 8 0 0,1
20.01.2021 06:00:00 5,8 5,1 5,3 4,4 2,9 4,8 25 14 42 23 SSW 998,5 8 0 0,3
20.01.2021 05:00:00 6,2 5,4 5,7 4,6 2,7 4,8 31 17 44 24 SSW 998,9 10 0 0,4
20.01.2021 04:00:00 6,7 6,2 6,2 4,7 2,6 4,8 28 15 43 23 SSW 999,2 8 0 0,3
20.01.2021 03:00:00 7,1 6,6 6,4 4,5 2,3 4,8 24 13 41 22 SSW 999,2 13 0 0,0
20.01.2021 02:00:00 7,6 7,0 7,0 4,6 2,1 4,8 26 14 44 24 SW 999,3 20 0 0,1
20.01.2021 01:00:00 8,0 6,9 7,1 4,3 1,8 4,8 27 14 46 25 SW 999,3 20 0 0,2
20.01.2021 00:00:00 7,7 7,3 7,1 3,6 1,6 4,8 28 15 39 21 SW 999,5 2,9 0 0,3
19.01.2021 23:00:00 5,9 5,8 5,4 2,8 1,4 4,8 14 8 26 14 SSW 999,5 2,2 0 0,5
19.01.2021 22:00:00 5,3 5,3 4,8 2,3 1,2 4,8 16 8 25 14 SSW 999,9 4,8 0 0,3
19.01.2021 21:00:00 4,7 4,6 4,2 1,9 1,1 4,8 16 8 24 13 SSW 1000,0 4,2 0 0,8
19.01.2021 20:00:00 4,0 4,0 3,6 1,6 1,0 4,8 13 7 26 14 SSW 1000,1 2,2 0 0,1
19.01.2021 19:00:00 3,5 3,3 3,1 1,2 0,9 4,9 14 8 26 14 SSW 1000,1 6 0 0,0
19.01.2021 18:00:00 3,0 2,9 2,6 1,0 0,8 4,9 16 9 34 18 SSW 1000,3 7 0 0,0
19.01.2021 17:00:00 2,7 2,5 2,3 0,8 0,8 4,9 18 10 32 18 SSW 1000,2 19 0 0,0
19.01.2021 16:00:00 2,4 2,2 2,1 0,7 0,7 4,9 19 10 33 18 SSW 1000,1 10 0 0,0
19.01.2021 15:00:00 2,1 1,6 1,9 0,8 0,7 4,9 22 12 37 20 SSW 1000,2 16 0 0,0
19.01.2021 14:00:00 1,9 1,4 1,9 0,9 0,7 4,9 19 11 36 19 S 1000,8 41 0 0,1
19.01.2021 13:00:00 1,7 1,2 1,6 0,8 0,7 4,9 22 12 44 24 S 1001,8 22 0 0,6
19.01.2021 12:00:00 1,8 1,2 1,7 0,6 0,7 4,9 26 14 40 22 S 1002,7 23 0 0,3
19.01.2021 11:00:00 1,2 0,8 1,0 0,2 0,7 4,9 22 12 36 19 S 1004,0 12 0 0,8
19.01.2021 10:00:00 1,2 0,9 0,9 0,1 0,7 4,9 18 10 41 22 S 1005,1 7 0 2,3
19.01.2021 09:00:00 2,4 1,9 1,9 0,2 0,7 4,9 22 12 39 21 S 1006,2 5 0 2,0
19.01.2021 08:00:00 3,1 2,4 2,5 0,1 0,7 4,9 21 11 33 18 SSW 1007,2 4,7 0 0,1
19.01.2021 07:00:00 2,8 2,0 2,1 0,1 0,7 4,9 18 10 31 17 SSW 1008,2 7 0 0,0
19.01.2021 06:00:00 2,9 1,9 1,7 0,0 0,7 5,0 19 10 32 18 SSW 1009,4 10 0 0,0
19.01.2021 05:00:00 2,9 2,2 1,9 0,0 0,7 5,0 17 9 26 14 SSW 1010,1 7 0 0,0
19.01.2021 04:00:00 3,4 2,5 2,6 0,1 0,7 5,0 19 10 29 16 SW 1010,9 21 0 0,0
19.01.2021 03:00:00 3,3 2,5 2,6 0,0 0,7 5,0 18 10 31 17 SW 1011,3 16 0 0,0
19.01.2021 02:00:00 3,7 2,7 2,9 0,0 0,7 5,0 18 10 34 19 WSW 1011,9 17 0 0,0
19.01.2021 01:00:00 3,6 2,7 2,9 0,0 0,7 5,0 22 12 35 19 WSW 1012,4 18 0 0,0
19.01.2021 00:00:00 3,7 2,7 2,9 0,0 0,6 5,0 24 13 36 20 WSW 1012,3 21 0 0,0
18.01.2021 23:00:00 3,4 2,7 2,3 0,0 0,6 5,0 19 10 32 17 WSW 1012,5 15 0 0,0
18.01.2021 22:00:00 3,5 3,0 3,0 0,0 0,6 5,0 21 12 32 18 WSW 1012,9 4,6 0 0,0
18.01.2021 21:00:00 3,6 3,0 2,9 0,0 0,6 5,0 22 12 35 19 WSW 1012,8 8 0 0,1
18.01.2021 20:00:00 3,5 2,8 2,9 0,0 0,6 5,0 22 12 34 18 WSW 1012,8 8 0 0,0
18.01.2021 19:00:00 3,4 2,7 2,7 0,0 0,6 5,0 24 13 39 21 SW 1012,9 19 0 0,0
18.01.2021 18:00:00 3,4 2,7 2,7 0,0 0,6 5,0 24 13 39 21 SW 1013,0 13 0 0,2
18.01.2021 17:00:00 3,3 2,6 2,7 0,0 0,6 5,1 23 12 40 22 SW 1013,2 12 0 0,8
18.01.2021 16:00:00 2,9 2,6 2,2 0,0 0,6 5,1 18 10 29 16 SW 1013,5 4,7 0 0,8
18.01.2021 15:00:00 2,1 1,8 1,7 0,0 0,6 5,1 16 9 27 15 SSW 1013,9 6 0 0,7
18.01.2021 14:00:00 1,9 1,5 1,7 0,0 0,6 5,1 16 9 26 14 SSW 1014,7 6 0 1,0
18.01.2021 13:00:00 1,6 1,6 1,4 -0,1 0,6 5,1 14 7 27 14 SSW 1015,9 3,0 0 0,0
18.01.2021 12:00:00 1,1 1,0 1,0 -0,2 0,6 5,1 18 10 27 15 SW 1016,8 1,2 0 0,0
18.01.2021 11:00:00 0,5 0,2 0,5 -0,3 0,6 5,1 19 10 31 17 SW 1017,3 1,9 0 0,1
18.01.2021 10:00:00 -0,4 -0,7 -0,3 -0,4 0,6 5,1 18 10 28 15 SSW 1017,6 1,6 0 0,0
18.01.2021 09:00:00 -1,1 -1,5 -1,3 -0,6 0,6 5,1 16 9 30 16 SSW 1017,9 1,6 0 0,0
18.01.2021 08:00:00 -1,5 -2,3 -1,6 -0,7 0,6 5,1 15 8 26 14 SSW 1017,9 4,5 0 0,0
18.01.2021 07:00:00 -1,6 -3,0 -1,6 -0,7 0,6 5,1 14 7 20 11 SSW 1018,1 6 0 0,0
18.01.2021 06:00:00 -1,8 -3,2 -1,8 -0,8 0,6 5,1 11 6 18 10 SSW 1018,4 9 0 0,0
18.01.2021 05:00:00 -1,8 -3,3 -1,8 -0,8 0,6 5,1 11 6 19 11 S 1018,7 6 0 0,0
18.01.2021 04:00:00 -2,0 -3,6 -2,0 -0,9 0,6 5,2 10 6 20 11 SSW 1019,0 12 0 0,0
18.01.2021 03:00:00 -2,1 -3,6 -2,1 -1,0 0,6 5,2 14 7 21 11 S 1019,2 12 0 0,0
18.01.2021 02:00:00 -2,0 -4,4 -2,0 -1,0 0,6 5,2 11 6 20 11 S 1019,6 12 0 0,0
18.01.2021 01:00:00 -1,9 -4,9 -2,0 -1,1 0,6 5,2 12 6 21 11 S 1020,0 22 0 0,0
18.01.2021 00:00:00 -2,0 -4,6 -2,1 -1,3 0,6 5,2 10 5 21 11 S 1020,6 26 0 0,0
17.01.2021 23:00:00 -2,3 -4,9 -2,6 -1,4 0,7 5,2 12 6 16 9 S 1020,7 29 0 0,0
17.01.2021 22:00:00 -2,4 -4,9 -2,7 -1,6 0,7 5,2 10 6 17 9 S 1020,7 29 0 0,0
17.01.2021 21:00:00 -3,1 -5,4 -4,2 -2,1 0,7 5,2 10 5 19 10 S 1021,1 29 0 0,0
17.01.2021 20:00:00 -3,0 -5,4 -4,5 -2,0 0,7 5,2 11 6 18 10 S 1020,9 33 0 0,0
17.01.2021 19:00:00 -2,6 -5,1 -3,8 -1,6 0,8 5,2 9 5 13 7 SSE 1021,1 35 0 0,0
17.01.2021 18:00:00 -2,7 -5,2 -4,5 -1,7 0,8 5,2 8 4 18 10 SSE 1021,1 36 0 0,0
17.01.2021 17:00:00 -2,0 -5,3 -3,9 -1,2 0,8 5,2 11 6 20 11 SSE 1020,6 47 0 0,0
17.01.2021 16:00:00 -1,1 -5,2 -2,7 -0,7 0,8 5,2 13 7 21 11 SSE 1020,2 53 52 0,0
17.01.2021 15:00:00 -0,1 -5,0 -1,0 -0,4 0,8 5,3 11 6 22 12 S 1019,9 57 60 0,0
17.01.2021 14:00:00 0,2 -4,6 1,0 -0,4 0,8 5,3 12 6 21 11 S 1019,7 48 60 0,0
17.01.2021 13:00:00 0,0 -4,7 0,7 -0,5 0,8 5,3 11 6 24 13 S 1019,8 41 60 0,0
17.01.2021 12:00:00 -1,0 -4,8 -1,4 -0,9 0,8 5,3 11 6 23 13 S 1020,0 45 60 0,0
17.01.2021 11:00:00 -1,4 -4,8 -2,2 -1,4 0,8 5,3 12 7 19 11 S 1020,0 31 47 0,0
17.01.2021 10:00:00 -3,4 -5,8 -4,3 -2,2 0,9 5,3 10 5 21 11 S 1019,5 43 34 0,0
17.01.2021 09:00:00 -4,5 -6,3 -5,6 -2,5 0,9 5,3 13 7 17 9 S 1018,9 27 1 0,0
17.01.2021 08:00:00 -4,8 -6,4 -6,1 -2,5 0,9 5,3 11 6 15 8 S 1018,6 23 0 0,0
17.01.2021 07:00:00 -4,4 -6,1 -6,0 -2,3 1,0 5,3 11 6 14 8 SSE 1018,2 23 0 0,0
17.01.2021 06:00:00 -4,0 -6,0 -5,7 -2,2 1,0 5,3 9 5 11 6 SSE 1018,1 26 0 0,0
17.01.2021 05:00:00 -4,3 -5,9 -6,3 -2,0 1,0 5,3 6 3 11 6 SSE 1018,0 24 0 0,0
17.01.2021 04:00:00 -4,3 -6,0 -5,7 -1,7 1,1 5,3 7 4 13 7 SSW 1018,2 19 0 0,0
17.01.2021 03:00:00 -3,5 -5,0 -5,4 -1,5 1,1 5,3 8 4 11 6 SE 1018,3 28 0 0,0
17.01.2021 02:00:00 -3,9 -5,3 -5,8 -1,4 1,1 5,3 7 4 11 6 SSE 1018,6 23 0 0,0
17.01.2021 01:00:00 -3,9 -5,4 -5,1 -1,2 1,2 5,4 8 5 11 6 S 1018,8 21 0 0,0
17.01.2021 00:00:00 -4,0 -5,3 -5,0 -1,0 1,2 5,4 10 6 14 7 SSW 1019,2 22 0 0,0
16.01.2021 23:00:00 -4,0 -5,3 -5,1 -0,9 1,2 5,4 11 6 14 7 SSW 1019,4 20 0 0,0
16.01.2021 22:00:00 -3,7 -5,4 -5,0 -0,8 1,2 5,4 13 7 17 9 SW 1019,6 20 0 0,0
16.01.2021 21:00:00 -3,4 -5,3 -4,6 -0,6 1,3 5,4 13 7 16 8 SSW 1019,8 19 0 0,0
16.01.2021 20:00:00 -3,1 -5,2 -4,2 -0,4 1,3 5,4 10 5 12 6 SSW 1020,4 23 0 0,0
16.01.2021 19:00:00 -2,7 -5,0 -4,2 -0,2 1,3 5,4 9 5 10 5 SSW 1020,8 23 0 0,0
16.01.2021 18:00:00 -2,7 -4,9 -4,5 0,0 1,3 5,4 8 4 9 5 SSW 1021,2 26 0 0,0
16.01.2021 17:00:00 -2,1 -4,3 -4,3 0,1 1,3 5,4 9 5 10 5 SW 1021,6 28 0 0,0
16.01.2021 16:00:00 -0,8 -4,1 -1,7 0,1 1,3 5,4 9 5 17 9 WSW 1022,0 39 21 0,0
16.01.2021 15:00:00 0,1 -4,3 -0,6 0,1 1,3 5,4 17 9 24 13 W 1022,0 44 57 0,0
16.01.2021 14:00:00 0,7 -4,0 1,6 0,1 1,3 5,4 15 8 24 13 W 1022,3 46 8 0,0
16.01.2021 13:00:00 0,1 -4,1 0,2 0,1 1,3 5,4 16 9 26 14 WNW 1023,2 46 1 0,0
16.01.2021 12:00:00 -0,1 -3,7 0,0 0,1 1,4 5,4 17 9 27 14 WNW 1023,9 44 0 0,0
16.01.2021 11:00:00 -0,3 -3,5 -0,3 0,1 1,4 5,5 16 9 24 13 WNW 1024,6 43 0 0,0
16.01.2021 10:00:00 -0,6 -4,3 -0,7 0,1 1,4 5,5 16 9 26 14 NW 1024,7 57 1 0,0
16.01.2021 09:00:00 -0,8 -5,1 -1,3 0,1 1,4 5,5 19 10 29 15 NNW 1024,9 75 0 0,0
16.01.2021 08:00:00 -0,6 -4,3 -0,9 0,1 1,4 5,5 20 11 33 18 NNW 1025,0 58 0 0,0
16.01.2021 07:00:00 -0,6 -4,6 -1,3 0,1 1,4 5,5 27 15 41 22 NNW 1025,4 57 0 0,0
16.01.2021 06:00:00 -0,3 -4,5 -0,8 0,1 1,4 5,5 27 15 37 20 NNW 1025,7 59 0 0,0
16.01.2021 05:00:00 0,0 -5,3 -0,3 0,1 1,4 5,5 23 12 37 20 NW 1025,8 57 0 0,0
16.01.2021 04:00:00 -0,1 -5,0 -0,4 0,1 1,4 5,5 24 13 36 19 NNW 1026,2 55 0 0,0
16.01.2021 03:00:00 -0,1 -5,0 -0,5 0,1 1,4 5,5 26 14 42 23 NW 1026,4 67 0 0,0
16.01.2021 02:00:00 -0,3 -4,3 -0,6 0,1 1,4 5,5 17 9 35 19 WNW 1026,6 58 0 0,0
16.01.2021 01:00:00 0,1 -5,4 -0,3 0,1 1,4 5,5 23 13 33 18 NW 1026,9 58 0 0,0
16.01.2021 00:00:00 -0,1 -4,9 -0,5 0,1 1,4 5,5 18 10 31 17 NW 1027,3 66 0 0,0
15.01.2021 23:00:00 -0,2 -5,1 -0,6 0,1 1,5 5,5 16 9 27 15 NW 1027,5 55 0 0,0
15.01.2021 22:00:00 -0,3 -5,2 -0,6 0,1 1,5 5,5 16 9 25 13 NW 1027,5 75 0 0,0
15.01.2021 21:00:00 -0,4 -5,0 -0,7 0,1 1,5 5,5 14 8 29 16 N 1027,5 75 0 0,0
15.01.2021 20:00:00 -0,5 -5,0 -0,9 0,1 1,5 5,5 19 10 31 17 N 1027,7 69 0 0,0
15.01.2021 19:00:00 -0,7 -5,8 -1,0 0,1 1,5 5,6 27 15 36 19 N 1027,7 74 0 0,0
15.01.2021 18:00:00 -1,3 -6,3 -2,3 0,1 1,5 5,6 25 14 39 21 N 1027,7 62 0 0,0
15.01.2021 17:00:00 -1,3 -6,5 -1,9 0,2 1,5 5,6 27 15 40 21 N 1027,6 72 0 0,0
15.01.2021 16:00:00 -1,2 -7,0 -1,5 0,2 1,6 5,6 29 16 38 20 N 1027,1 75 0 0,0
15.01.2021 15:00:00 -1,5 -7,2 -1,6 0,2 1,6 5,6 24 13 37 20 N 1026,9 57 0 0,0
15.01.2021 14:00:00 -1,3 -6,3 -1,2 0,2 1,6 5,6 22 12 39 21 N 1026,7 58 0 0,0
15.01.2021 13:00:00 -1,1 -5,3 -1,0 0,2 1,6 5,6 28 15 40 22 N 1026,6 60 0 0,0
15.01.2021 12:00:00 -0,5 -5,1 -0,6 0,2 1,6 5,6 25 14 35 19 N 1026,4 49 0 0,0
15.01.2021 11:00:00 -0,4 -6,3 -0,6 0,2 1,6 5,6 24 13 35 19 N 1026,0 75 0 0,1
15.01.2021 10:00:00 -0,3 -5,2 -0,6 0,2 1,7 5,6 25 14 42 23 N 1025,3 37 0 0,0
15.01.2021 09:00:00 0,0 -5,1 -0,4 0,2 1,7 5,6 28 15 39 21 N 1024,9 71 0 0,0
15.01.2021 08:00:00 0,1 -3,9 -0,2 0,2 1,7 5,6 27 15 38 20 N 1024,2 57 0 0,3
15.01.2021 07:00:00 0,3 -2,7 0,0 0,2 1,8 5,6 24 13 32 17 N 1023,8 41 0 0,3
15.01.2021 06:00:00 0,3 -2,3 0,1 0,2 1,8 5,6 24 13 31 17 N 1023,5 23 0 0,2
15.01.2021 05:00:00 0,6 -2,4 0,4 0,3 1,9 5,6 24 13 34 18 N 1023,5 43 0 0,0
15.01.2021 04:00:00 0,9 -2,5 0,5 0,3 1,9 5,6 21 11 34 19 N 1023,3 45 0 0,0
15.01.2021 03:00:00 1,0 -2,3 0,5 0,4 2,0 5,6 26 14 39 21 NNE 1023,3 39 0 0,0
15.01.2021 02:00:00 1,0 -2,4 0,7 0,5 2,0 5,6 21 11 27 15 N 1023,2 74 0 0,0
15.01.2021 01:00:00 1,6 -3,2 1,0 0,6 2,1 5,6 16 9 30 16 N 1023,2 72 0 0,0
15.01.2021 00:00:00 1,3 -2,6 0,9 0,7 2,1 5,6 21 12 34 18 N 1023,3 59 0 0,0
14.01.2021 23:00:00 1,7 -1,6 1,3 1,0 2,1 5,6 26 14 32 17 N 1022,9 47 0 0,0
14.01.2021 22:00:00 1,9 -1,0 1,4 1,0 2,2 5,7 26 14 31 17 N 1022,7 48 0 0,0
14.01.2021 21:00:00 2,0 -1,0 1,3 0,7 2,3 5,7 22 12 29 16 N 1022,4 53 0 0,0
14.01.2021 20:00:00 1,9 -1,5 0,9 0,8 2,3 5,7 22 12 32 18 N 1022,0 50 0 0,0
14.01.2021 19:00:00 2,2 -0,7 1,8 1,4 2,3 5,7 23 12 33 18 N 1021,9 63 0 0,0
14.01.2021 18:00:00 2,3 -0,8 1,9 1,5 2,4 5,7 22 12 37 20 N 1021,7 43 0 0,0
14.01.2021 17:00:00 2,3 -0,5 1,8 1,5 2,4 5,7 24 13 32 17 N 1021,0 52 0 0,0
14.01.2021 16:00:00 2,4 -1,0 2,0 1,7 2,3 5,7 21 12 30 16 N 1020,6 65 0 0,0
14.01.2021 15:00:00 2,3 -0,8 2,1 1,9 2,3 5,7 23 13 35 19 N 1020,2 62 0 0,0

tt = temperature
td = dewpoint
tt 5cm = temperature 5cm
tt -5cm = temperature -5cm
tt -20cm = temperature -20cm
tt -100cm = temperature -100cm
ff = wind speed
fx = gusts
dd = wind direction
ppp = reduced air pressure
vv = visibility
sd = sunshine duration
rr = precipitation

Next stations